Weather History for KGAG - May, 2014

Change the Weather History Date:

Saturday, May 10, 2014

  Actual Average Record
Temperature  
Mean Temperature 73 °F -  
Max Temperature 96 °F 77 °F 98 °F (1967)
Min Temperature 51 °F 52 °F 34 °F (1981)
Cooling Degree Days 8    
Growing Degree Days 23 (Base 50)    
Moisture  
Dew Point 38 °F    
Average Humidity 34    
Maximum Humidity 71    
Minimum Humidity 7    
Precipitation  
Precipitation 0.00 in - - ()
Sea Level Pressure  
Sea Level Pressure 29.65 in    
Wind  
Wind Speed 14 mph (South)    
Max Wind Speed 30 mph    
Max Gust Speed 38 mph    
Visibility 10 miles    
Events      
Averages and records for this station are not official NWS values.
T = Trace of Precipitation, MM = Missing Value Source: NWS Daily Summary

Daily Weather History Graph

Daily Weather History Graph

Search for Another Location

Airport or City:

Trip Planner

Search our weather history database for the weather conditions in past years. The results will help you decide how hot, cold, wet, or windy it might be!

Date:

Astronomy

May. 10, 2014 Rise Set
Actual Time 6:36 AM CDT 8:34 PM CDT
Civil Twilight 6:08 AM CDT 9:02 PM CDT
Nautical Twilight 5:34 AM CDT 9:37 PM CDT
Astronomical Twilight 4:57 AM CDT 10:14 PM CDT
Moon 4:39 PM CDT (5/10) 4:03 AM CDT (5/10)
Length of Visible Light 14h 54m
Length of Day
13h 57m
Waxing Gibbous, 82% of the Moon is Illuminated
May 10
Waxing Gibbous
May 14
Full
May 21
Last Quarter
May 28
New
Jun 5
First Quarter

Hourly Weather History & Observations

Time (CDT) Temp. Heat Index Dew Point Humidity Pressure Visibility Wind Dir Wind Speed Gust Speed Precip Events Conditions
12:53 AM 64.0 °F - 46.9 °F 54% 29.74 in 10.0 mi SSE 16.1 mph 24.2 mph N/A   Clear
1:53 AM 63.0 °F - 46.9 °F 56% 29.72 in 10.0 mi SSE 20.7 mph - N/A   Clear
2:53 AM 62.1 °F - 46.9 °F 58% 29.70 in 10.0 mi South 20.7 mph 29.9 mph N/A   Clear
3:53 AM 61.0 °F - 46.0 °F 58% 29.68 in 10.0 mi South 17.3 mph - N/A   Clear
4:53 AM 59.0 °F - 45.0 °F 60% 29.68 in 10.0 mi South 17.3 mph 24.2 mph N/A   Clear
5:53 AM 59.0 °F - 42.8 °F 55% 29.77 in 10.0 mi Variable 5.8 mph - N/A   Clear
6:53 AM 51.1 °F - 42.1 °F 71% 29.73 in 10.0 mi WSW 4.6 mph - N/A   Clear
7:53 AM 57.0 °F - 44.1 °F 62% 29.73 in 10.0 mi SW 3.5 mph - N/A   Clear
8:53 AM 66.9 °F - 41.0 °F 39% 29.73 in 10.0 mi SSW 10.4 mph - N/A   Clear
9:53 AM 72.0 °F - 39.9 °F 31% 29.73 in 10.0 mi SW 9.2 mph - N/A   Clear
10:53 AM 77.0 °F - 37.9 °F 24% 29.73 in 10.0 mi SSW 6.9 mph - N/A   Clear
11:53 AM 82.0 °F - 36.0 °F 19% 29.71 in 10.0 mi SSE 5.8 mph - N/A   Clear
12:53 PM 84.9 °F - 34.0 °F 16% 29.68 in 10.0 mi Variable 4.6 mph - N/A   Clear
1:53 PM 88.0 °F - 28.9 °F 12% 29.65 in 10.0 mi East 5.8 mph - N/A   Clear
2:53 PM 91.9 °F - 23.0 °F 8% 29.62 in 10.0 mi SSE 10.4 mph 20.7 mph N/A   Clear
3:53 PM 93.9 °F - 21.0 °F 7% 29.58 in 10.0 mi SSW 20.7 mph 29.9 mph N/A   Clear
4:53 PM 95.0 °F - 19.9 °F 7% 29.54 in 10.0 mi SSW 17.3 mph 27.6 mph N/A   Partly Cloudy
5:53 PM 95.0 °F - 21.9 °F 7% 29.53 in 10.0 mi South 13.8 mph 31.1 mph N/A   Partly Cloudy
6:53 PM 93.0 °F - 21.9 °F 8% 29.52 in 10.0 mi South 15.0 mph 25.3 mph N/A   Scattered Clouds
7:53 PM 90.0 °F - 21.9 °F 8% 29.52 in 10.0 mi South 16.1 mph - N/A   Scattered Clouds
8:53 PM 82.0 °F - 27.0 °F 13% 29.52 in 10.0 mi SSE 12.7 mph - N/A   Partly Cloudy
9:53 PM 80.6 °F 80.8 °F 57.2 °F 45% 29.62 in 10.0 mi SSE 29.9 mph 35.7 mph N/A   Clear
10:53 PM 77.0 °F - 57.9 °F 52% 29.55 in 10.0 mi SSE 25.3 mph 38.0 mph N/A   Clear
11:53 PM 75.0 °F - 59.0 °F 57% 29.52 in 10.0 mi SSE 25.3 mph 36.8 mph N/A   Clear